GAOFEN-6

Last updated on Mon Jun 22 2026 00:02:52 GMT+0000 (Coordinated Universal Time)

1 43484U 18048A 26172.54358654 .00001061 00000+0 15912-3 0 9990 2 43484 97.9704 235.2358 0011981 151.9103 208.2756 14.76604265434034
UTC large
Height (km)
Speed (km/s)
/
Latitude / Longitude
Inclination (degrees)
Orbital Period (minutes)
Azimuth
Elevation
Range (km)
Doppler Factor

Next 0 passes for location: London (51.5072 / 0.1276)

No passes found over London.
GAOFEN-6